Albany, NY

7:20 PM EST on December 12, 2019 (GMT -0500)
Albany International

Weather History for KALB - August, 2019

Change the Weather History Date:

Tuesday, August 27, 2019

  Actual Average Record
Temperature  
Mean Temperature 64 °F 68 °F  
Max Temperature 75 °F 79 °F 97 °F (1948)
Min Temperature 53 °F 58 °F 41 °F (1969)
Degree Days  
Heating Degree Days 1 1  
Month to date heating degree days 2 10  
Since 1 June heating degree days 29 67  
Since 1 July heating degree days 2 15  
Cooling Degree Days 0 4  
Month to date cooling degree days 197 162  
Year to date cooling degree days 703 528  
Since 1 June cooling degree days 681 498  
Growing Degree Days 14 (Base 50)    
Moisture  
Dew Point 54 °F    
Average Humidity 68    
Maximum Humidity 89    
Minimum Humidity 46    
Precipitation  
Precipitation 0.00 in 0.11 in 1.92 in (1891)
Month to date precipitation 4.08 3.08  
Year to date precipitation 28.94 25.77  
Sea Level Pressure  
Sea Level Pressure 30.05 in    
Wind  
Wind Speed 7 mph (South)    
Max Wind Speed 17 mph    
Max Gust Speed 22 mph    
Visibility 10 miles    
Events Fog    
T = Trace of Precipitation, MM = Missing Value Source: NWS Daily Summary

Daily Weather History Graph

Daily Weather History Graph

Search for Another Location

Airport or City:

Astronomy

Aug. 27, 2019 Rise Set
Actual Time 6:14 AM EDT 7:38 PM EDT
Civil Twilight 5:44 AM EDT 8:07 PM EDT
Nautical Twilight 5:09 AM EDT 8:43 PM EDT
Astronomical Twilight 4:31 AM EDT 9:20 PM EDT
Moon 2:30 AM EDT (8/27) 6:01 PM EDT (8/27)
Length of Visible Light 14h 23m
Length of Day
13h 24m
Waning Crescent, 11% of the Moon is Illuminated
Aug 27
Waning Crescent
Aug 30
New
Sep 5
First Quarter
Sep 14
Full
Sep 21
Last Quarter

Hourly Weather History & Observations

Time (EDT) Temp. Dew Point Humidity Pressure Visibility Wind Dir Wind Speed Gust Speed Precip Events Conditions
1:51 AM 57.9 °F 52.0 °F 81% 30.14 in 10.0 mi Calm Calm - N/A   Scattered Clouds
2:51 AM 57.9 °F 52.0 °F 81% 30.13 in 10.0 mi Calm Calm - N/A   Scattered Clouds
3:51 AM 57.0 °F 51.1 °F 81% 30.12 in 10.0 mi Calm Calm - N/A   Partly Cloudy
4:51 AM 57.0 °F 52.0 °F 83% 30.12 in 10.0 mi Calm Calm - N/A   Partly Cloudy
5:51 AM 54.0 °F 50.0 °F 86% 30.11 in 10.0 mi Calm Calm - N/A Fog Patches of Fog
6:51 AM 55.0 °F 51.1 °F 86% 30.11 in 10.0 mi Calm Calm - N/A Fog Patches of Fog
7:51 AM 60.1 °F 54.0 °F 80% 30.11 in 10.0 mi Calm Calm - N/A Fog Patches of Fog
8:51 AM 62.1 °F 55.9 °F 80% 30.11 in 10.0 mi South 5.8 mph - N/A   Mostly Cloudy
9:51 AM 66.0 °F 55.9 °F 70% 30.10 in 10.0 mi South 6.9 mph - N/A   Mostly Cloudy
10:51 AM 69.1 °F 57.0 °F 65% 30.09 in 10.0 mi South 9.2 mph - N/A   Mostly Cloudy
11:51 AM 73.0 °F 55.0 °F 53% 30.08 in 10.0 mi South 12.7 mph - N/A   Mostly Cloudy
12:51 PM 71.1 °F 55.0 °F 57% 30.06 in 10.0 mi South 9.2 mph - N/A   Mostly Cloudy
1:51 PM 73.0 °F 53.1 °F 49% 30.04 in 10.0 mi South 12.7 mph 21.9 mph N/A   Mostly Cloudy
2:51 PM 73.0 °F 52.0 °F 48% 30.02 in 10.0 mi South 12.7 mph 20.7 mph N/A   Mostly Cloudy
3:51 PM 75.0 °F 55.9 °F 51% 30.01 in 10.0 mi South 11.5 mph - N/A   Mostly Cloudy
4:51 PM 73.9 °F 54.0 °F 50% 29.99 in 10.0 mi South 11.5 mph - N/A   Mostly Cloudy
5:51 PM 72.0 °F 55.0 °F 55% 29.99 in 10.0 mi South 9.2 mph - N/A   Mostly Cloudy
6:51 PM 72.0 °F 55.9 °F 57% 29.98 in 10.0 mi South 11.5 mph - N/A   Mostly Cloudy
7:51 PM 72.0 °F 57.9 °F 61% 29.98 in 10.0 mi SSE 11.5 mph - N/A   Overcast
8:51 PM 71.1 °F 57.9 °F 63% 29.99 in 10.0 mi SSE 6.9 mph - N/A   Overcast
9:51 PM 71.1 °F 57.0 °F 61% 29.99 in 10.0 mi South 11.5 mph - N/A   Overcast
10:51 PM 71.1 °F 55.9 °F 59% 29.99 in 10.0 mi South 10.4 mph - N/A   Overcast
11:51 PM 70.0 °F 57.0 °F 63% 29.98 in 10.0 mi South 10.4 mph 19.6 mph N/A   Overcast